Location: Maccacari
(45.1333°N, 11.1333°E)
Time: 18:37:08
(UTC+00:00)

Tiros 1 despin weight - Pass Details

Date: 29 January 2021
Orbit: 593 x 642 km, 48.2° (Epoch: 25 February)

Event Time Altitude Azimuth Distance (km) Brightness Sun altitude
Rises 09:52:09 0° 182° (S) 2,913 ? 23.3°
Reaches altitude 10° 09:56:35 10° 142° (SE) 1,999 ? 23.7°
Maximum altitude 09:57:25 10° 132° (SE) 1,969 ? 23.7°
Drops below altitude 10° 09:58:14 10° 122° (ESE) 1,996 ? 23.8°
Sets 10:02:38 0° 82° (E) 2,893 ? 24.1°
